Weather History for K06D - January, 2013

Change the Weather History Date:

Monday, January 21, 2013

  Actual Average Record
Temperature  
Mean Temperature -12 °F -  
Max Temperature -5 °F - - ()
Min Temperature -20 °F - - ()
Degree Days  
Heating Degree Days 78    
Moisture  
Dew Point -21 °F    
Average Humidity 70    
Maximum Humidity 76    
Minimum Humidity 59    
Precipitation  
Precipitation 0.00 in - - ()
Sea Level Pressure  
Sea Level Pressure 30.20 in    
Wind  
Wind Speed 17 mph (NW)    
Max Wind Speed 28 mph    
Max Gust Speed 33 mph    
Visibility 10 miles    
Events Snow    
T = Trace of Precipitation, MM = Missing Value Source: NWS Daily Summary

Daily Weather History Graph

Daily Weather History Graph

Search for Another Location

Airport or City:

Trip Planner

Search our weather history database for the weather conditions in past years. The results will help you decide how hot, cold, wet, or windy it might be!

Date:

Astronomy

Jan. 21, 2013 Rise Set
Actual Time 8:21 AM CST 5:19 PM CST
Civil Twilight 7:46 AM CST 5:54 PM CST
Nautical Twilight 7:07 AM CST 6:33 PM CST
Astronomical Twilight 6:29 AM CST 7:10 PM CST
Moon 12:58 PM CST (1/21) 3:52 AM CST (1/21)
Length of Visible Light 10h 08m
Length of Day
8h 57m
Waxing Gibbous, 75% of the Moon is Illuminated
Jan 21
Waxing Gibbous
Jan 26
Full
Feb 3
Last Quarter
Feb 10
New
Feb 17
First Quarter

Hourly Weather History & Observations

Time (CST) Temp. Windchill Dew Point Humidity Pressure Visibility Wind Dir Wind Speed Gust Speed Precip Events Conditions
12:15 AM -16.6 °F -45.9 °F -22.0 °F 76% 30.27 in 10.0 mi NW 24.2 mph 32.2 mph N/A   Clear
12:35 AM -16.6 °F -45.9 °F -22.0 °F 76% 30.26 in 10.0 mi NW 24.2 mph 33.4 mph N/A   Clear
12:55 AM -16.6 °F -46.4 °F -22.0 °F 76% 30.25 in 10.0 mi NW 25.3 mph 33.4 mph N/A Snow Light Snow
1:15 AM -16.6 °F -46.4 °F -22.0 °F 76% 30.25 in 10.0 mi NW 25.3 mph 33.4 mph N/A Snow Light Snow
1:35 AM -16.6 °F -47.4 °F -22.0 °F 76% 30.25 in 10.0 mi NW 27.6 mph 32.2 mph N/A Snow Light Snow
1:55 AM -16.6 °F -45.9 °F -22.0 °F 76% 30.24 in 10.0 mi NW 24.2 mph 27.6 mph N/A   Clear
2:15 AM -16.6 °F -45.3 °F -22.0 °F 76% 30.25 in 10.0 mi NW 23.0 mph - N/A   Clear
2:35 AM -16.6 °F -42.1 °F -22.0 °F 76% 30.24 in 10.0 mi NW 17.3 mph - N/A   Clear
2:55 AM -16.6 °F -42.9 °F -22.0 °F 76% 30.25 in 10.0 mi NW 18.4 mph - N/A   Clear
3:15 AM -16.6 °F -43.5 °F -22.0 °F 76% 30.25 in 10.0 mi NW 19.6 mph 26.5 mph N/A   Clear
3:35 AM -16.6 °F -43.5 °F -22.0 °F 76% 30.24 in 10.0 mi NW 19.6 mph 27.6 mph N/A   Clear
3:55 AM -16.6 °F -40.6 °F -22.0 °F 76% 30.24 in 10.0 mi WNW 15.0 mph - N/A   Clear
4:15 AM -16.6 °F -40.6 °F -22.0 °F 76% 30.23 in 10.0 mi WNW 15.0 mph 20.7 mph N/A   Clear
4:35 AM -16.6 °F -42.1 °F -23.8 °F 70% 30.22 in 10.0 mi WNW 17.3 mph - N/A   Clear
4:55 AM -16.6 °F -40.6 °F -23.8 °F 70% 30.22 in 10.0 mi WNW 15.0 mph - N/A   Clear
5:15 AM -16.6 °F -39.8 °F -23.8 °F 70% 30.22 in 10.0 mi NW 13.8 mph - N/A   Clear
5:35 AM -16.6 °F -37.9 °F -23.8 °F 70% 30.21 in 10.0 mi WNW 11.5 mph - N/A   Clear
5:55 AM -18.4 °F -37.9 °F -23.8 °F 76% 30.20 in 10.0 mi NW 9.2 mph - N/A   Clear
6:15 AM -18.4 °F -39.1 °F -23.8 °F 76% 30.21 in 10.0 mi NW 10.4 mph - N/A   Clear
6:35 AM -18.4 °F -35.1 °F -25.6 °F 70% 30.21 in 10.0 mi WNW 6.9 mph - N/A   Clear
6:55 AM -18.4 °F -33.4 °F -25.6 °F 70% 30.20 in 10.0 mi WNW 5.8 mph - N/A   Clear
7:15 AM -20.2 °F -38.8 °F -25.6 °F 76% 30.20 in 10.0 mi WNW 8.1 mph - N/A   Clear
7:35 AM -20.2 °F -38.8 °F -25.6 °F 76% 30.20 in 10.0 mi WNW 8.1 mph - N/A   Clear
7:55 AM -20.2 °F -40.1 °F -25.6 °F 76% 30.19 in 10.0 mi WNW 9.2 mph - N/A   Clear
8:15 AM -18.4 °F -40.2 °F -25.6 °F 70% 30.19 in 10.0 mi NW 11.5 mph - N/A   Clear
8:35 AM -18.4 °F -41.2 °F -25.6 °F 70% 30.19 in 10.0 mi WNW 12.7 mph - N/A   Clear
8:55 AM -16.6 °F -38.9 °F -23.8 °F 70% 30.19 in 10.0 mi NW 12.7 mph - N/A   Clear
9:15 AM -16.6 °F -38.9 °F -23.8 °F 70% 30.18 in 10.0 mi NW 12.7 mph - N/A   Clear
9:35 AM -14.8 °F -35.6 °F -22.0 °F 70% 30.19 in 10.0 mi NW 11.5 mph - N/A   Clear
9:55 AM -13.0 °F -36.0 °F -22.0 °F 64% 30.19 in 10.0 mi NW 15.0 mph - N/A   Clear
10:15 AM -13.0 °F -34.3 °F -20.2 °F 70% 30.19 in 10.0 mi NW 12.7 mph - N/A   Clear
10:35 AM -11.2 °F -30.1 °F -20.2 °F 64% 30.19 in 10.0 mi NNW 10.4 mph - N/A   Clear
10:55 AM -11.2 °F -32.1 °F -20.2 °F 64% 30.20 in 10.0 mi NW 12.7 mph - N/A   Clear
11:15 AM -11.2 °F -31.1 °F -18.4 °F 70% 30.19 in 10.0 mi NW 11.5 mph - N/A   Clear
11:35 AM -9.4 °F -30.6 °F -18.4 °F 65% 30.18 in 10.0 mi NW 13.8 mph - N/A   Clear
11:55 AM -7.6 °F -28.3 °F -18.4 °F 59% 30.18 in 10.0 mi NNW 13.8 mph - N/A   Clear
12:15 PM -9.4 °F -32.8 °F -18.4 °F 65% 30.18 in 10.0 mi NNW 17.3 mph - N/A   Clear
12:35 PM -9.4 °F -33.5 °F -18.4 °F 65% 30.18 in 10.0 mi NNW 18.4 mph - N/A   Clear
12:55 PM -9.4 °F -33.5 °F -18.4 °F 65% 30.18 in 10.0 mi NNW 18.4 mph - N/A   Clear
1:15 PM -9.4 °F -32.8 °F -18.4 °F 65% 30.18 in 10.0 mi NNW 17.3 mph - N/A   Clear
1:35 PM -9.4 °F -32.1 °F -18.4 °F 65% 30.18 in 10.0 mi NNW 16.1 mph - N/A   Clear
1:55 PM -7.6 °F -29.1 °F -18.4 °F 59% 30.18 in 10.0 mi NNW 15.0 mph - N/A   Clear
2:15 PM -7.6 °F -29.8 °F -16.6 °F 65% 30.18 in 10.0 mi NNW 16.1 mph - N/A   Clear
2:35 PM -7.6 °F -29.8 °F -16.6 °F 65% 30.17 in 10.0 mi NW 16.1 mph - N/A   Clear
2:55 PM -5.8 °F -26.8 °F -16.6 °F 60% 30.17 in 10.0 mi WNW 15.0 mph - N/A   Clear
3:15 PM -5.8 °F -26.0 °F -16.6 °F 60% 30.17 in 10.0 mi NW 13.8 mph 20.7 mph N/A   Clear
3:35 PM -5.8 °F -22.4 °F -16.6 °F 60% 30.18 in 10.0 mi NNW 9.2 mph - N/A   Clear
3:55 PM -7.6 °F -24.6 °F -16.6 °F 65% 30.18 in 10.0 mi North 9.2 mph - N/A   Clear
4:15 PM -7.6 °F -28.3 °F -18.4 °F 59% 30.19 in 10.0 mi NNW 13.8 mph - N/A   Clear
4:35 PM -9.4 °F -29.8 °F -18.4 °F 65% 30.18 in 10.0 mi NNW 12.7 mph - N/A   Clear
4:55 PM -9.4 °F -28.9 °F -18.4 °F 65% 30.19 in 10.0 mi NNW 11.5 mph - N/A   Clear
5:15 PM -11.2 °F -30.1 °F -18.4 °F 70% 30.18 in 10.0 mi NW 10.4 mph - N/A   Clear
5:35 PM -13.0 °F -33.4 °F -20.2 °F 70% 30.18 in 10.0 mi NW 11.5 mph - N/A   Clear
5:55 PM -11.2 °F -29.0 °F -20.2 °F 64% 30.18 in 10.0 mi WNW 9.2 mph - N/A   Clear
6:15 PM -13.0 °F -31.3 °F -20.2 °F 70% 30.18 in 10.0 mi WNW 9.2 mph - N/A   Clear
6:55 PM -13.0 °F -31.3 °F -20.2 °F 70% 30.18 in 10.0 mi WNW 9.2 mph - N/A   Clear
7:15 PM -13.0 °F -28.6 °F -20.2 °F 70% 30.18 in 10.0 mi NW 6.9 mph - N/A   Clear
7:35 PM - - - N/A% 30.18 in 10.0 mi NW 4.6 mph - N/A   Clear
7:55 PM -13.0 °F -31.3 °F -20.2 °F 70% 30.18 in 10.0 mi NW 9.2 mph - N/A   Clear
8:15 PM -13.0 °F -33.4 °F -20.2 °F 70% 30.18 in 10.0 mi NW 11.5 mph - N/A   Clear
8:35 PM -13.0 °F -34.3 °F -20.2 °F 70% 30.18 in 10.0 mi NW 12.7 mph - N/A   Clear
8:55 PM -11.2 °F -32.1 °F -18.4 °F 70% 30.17 in 10.0 mi NW 12.7 mph - N/A   Clear
9:15 PM -11.2 °F -32.9 °F -18.4 °F 70% 30.17 in 10.0 mi NW 13.8 mph - N/A   Clear
9:35 PM -11.2 °F -32.9 °F -18.4 °F 70% 30.17 in 10.0 mi NW 13.8 mph - N/A   Clear
9:55 PM -11.2 °F -32.1 °F -18.4 °F 70% 30.17 in 10.0 mi NW 12.7 mph - N/A   Clear
10:15 PM -11.2 °F -32.9 °F -18.4 °F 70% 30.17 in 10.0 mi NW 13.8 mph - N/A   Clear
10:35 PM -11.2 °F -32.9 °F -18.4 °F 70% 30.17 in 10.0 mi NW 13.8 mph - N/A   Clear
10:55 PM -11.2 °F -31.1 °F -18.4 °F 70% 30.18 in 10.0 mi NW 11.5 mph - N/A   Clear
11:15 PM -11.2 °F -30.1 °F -18.4 °F 70% 30.18 in 10.0 mi NW 10.4 mph - N/A   Clear
11:35 PM -13.0 °F -32.4 °F -20.2 °F 70% 30.19 in 10.0 mi NW 10.4 mph - N/A   Clear
11:55 PM -13.0 °F -32.4 °F -20.2 °F 70% 30.18 in 10.0 mi NW 10.4 mph - N/A   Clear